Temp
10 10 10 11 11 11 11 11 11 11 11 11 11 11 11 11 12 13 17 17 16 13 15 19 23 20 20 19 20 20 22 22 22 23 24 23 25 26 26 27 26 26 24 24 22 24 26 28 28 29 22 22 21 21
9 9 10 10 10 10 10 11 11 10 10 10 11 11 11 10 11 12 14 17 15 13 16 21 21 22 21 22 19 19 19 20 21 22 21 21 24 23 23 25 24 26 24 24 24 23 23 24 24 22 22 22 21 21
8 8 9 9 10 10 10 10 10 10 11 11 11 11 10 10 10 10 12 14 14 12 14 16 18 27 25 25 25 22 21 22 22 19 19 19 25 21 23 24 27 25 25 23 23 25 24 23 22 22 22 21 20 20
6 7 8 9 9 9 10 10 10 10 11 11 11 10 9 10 10 10 11 13 13 12 14 17 23 24 27 28 26 26 25 25 22 19 19 20 23 22 22 24 24 24 25 23 22 23 23 23 22 21 21 21 20 19
5 6 7 8 8 8 8 9 10 10 10 11 11 10 9 10 11 13 14 15 14 14 14 15 19 25 28 28 29 29 26 22 21 22 21 22 20 22 20 20 22 23 25 23 22 22 21 22 20 21 21 20 20 19
5 5 6 6 7 7 8 8 9 10 10 10 11 10 10 10 12 14 13 15 15 15 14 14 19 22 27 28 28 27 23 21 19 20 20 19 21 21 20 21 22 22 21 21 23 23 22 22 21 21 20 19 19 18
5 5 6 6 7 6 7 8 9 10 10 11 11 11 11 11 11 12 15 16 17 15 13 15 16 20 27 25 21 22 22 21 20 19 20 21 22 19 18 21 22 22 23 23 23 23 22 22 21 20 21 20 20 19
6 5 5 6 6 7 8 8 9 10 10 11 11 12 12 12 12 13 18 18 17 15 13 15 17 19 25 21 22 18 21 18 20 20 19 21 19 18 21 21 22 23 22 23 24 24 21 19 19 19 20 19 18 17
6 6 5 6 7 7 8 9 9 10 11 11 12 12 12 13 12 17 17 17 17 16 15 15 17 19 20 20 19 20 18 20 18 21 20 20 19 21 21 21 22 22 23 23 24 21 21 20 19 18 19 18 17 16
6 6 6 6 6 7 7 8 9 10 12 12 12 12 13 16 17 17 16 14 14 14 12 14 16 19 20 19 20 19 18 20 21 20 20 20 20 20 20 19 20 21 22 22 23 24 20 19 19 18 18 18 17 17
6 6 6 5 6 6 6 7 9 11 12 12 12 13 15 16 16 14 15 15 16 17 15 16 17 18 18 21 20 19 20 20 22 21 21 20 20 20 20 20 20 21 22 22 24 23 20 19 19 18 18 19 20 19
6 6 6 6 5 6 6 7 8 10 10 9 9 11 12 14 14 17 16 17 17 18 19 19 19 18 19 19 20 19 22 20 23 20 23 21 20 20 20 22 22 22 22 22 23 22 22 21 21 19 20 19 20 21
6 6 6 6 6 6 7 7 8 8 11 11 11 13 15 15 15 17 18 18 18 19 20 20 21 20 20 18 20 20 22 21 19 21 21 19 19 18 18 20 21 22 22 21 21 21 21 21 21 21 19 21 21 20
6 6 6 6 6 6 7 8 8 9 10 11 14 11 15 16 17 18 17 19 20 19 18 18 18 20 18 20 19 23 21 21 22 21 22 17 17 18 18 18 19 18 19 20 20 21 20 20 20 21 21 21 21 19
6 6 6 6 6 6 7 8 8 9 9 12 14 13 16 18 18 18 17 18 18 18 18 18 19 17 19 21 19 20 22 21 21 20 17 16 17 17 19 19 18 18 18 18 18 19 20 20 20 20 22 22 21 21
6 6 7 7 7 6 7 8 9 9 11 12 14 15 16 17 16 16 18 18 18 18 17 16 17 17 18 19 21 21 21 20 19 17 16 17 18 18 18 17 17 18 17 17 18 18 18 18 19 19 20 20 21 21
6 6 7 8 7 7 7 8 9 10 12 13 14 15 16 16 17 15 17 17 17 16 16 15 19 19 18 18 20 17 19 17 16 16 16 18 18 18 18 19 20 20 18 18 18 19 19 19 19 19 17 19 19 20
6 6 7 7 7 7 8 8 9 10 12 13 13 13 16 16 16 16 16 17 17 16 16 17 15 18 18 18 17 16 15 15 15 17 16 17 17 18 19 18 19 20 19 19 18 18 18 18 17 17 18 18 19 19
6 6 6 6 6 7 8 8 8 10 11 11 12 13 14 15 14 15 16 16 17 16 15 15 16 16 15 16 16 17 16 15 16 17 16 19 19 19 19 19 19 19 19 19 19 18 18 19 19 18 18 17 17 18
6 6 6 6 6 7 9 9 9 9 11 12 13 14 13 13 13 14 16 16 16 16 16 17 16 15 13 14 16 15 15 15 15 16 16 16 18 18 17 17 17 18 19 19 18 18 17 17 18 18 18 18 17 17
6 7 7 7 7 7 8 10 10 9 11 12 13 13 14 15 16 16 16 14 16 15 15 15 15 15 16 16 17 17 16 16 14 14 14 14 17 17 17 19 18 19 17 17 16 16 16 15 18 20 19 18 18 18
6 7 7 8 8 8 8 11 11 11 11 12 13 13 14 14 14 14 13 15 15 14 14 14 15 15 15 15 16 18 18 18 17 17 18 17 14 14 16 18 17 16 17 18 18 17 17 19 20 20 19 19 19 18
8 8 8 8 9 8 8 12 11 11 12 12 14 15 15 15 14 14 15 15 16 16 16 16 17 17 16 17 17 17 17 17 15 16 17 16 17 17 17 18 18 17 16 18 19 19 19 20 19 18 19 18 17 17
8 8 9 9 10 9 10 11 11 13 14 14 15 16 16 15 14 14 15 15 14 15 15 14 15 13 14 14 12 14 15 16 16 17 16 16 16 16 16 15 16 15 15 15 16 17 17 17 18 18 17 19 17 15
8 9 8 7 10 10 12 13 13 14 14 15 16 15 14 14 14 15 15 12 12 13 14 14 14 12 12 12 14 13 14 15 14 13 15 15 14 14 14 13 13 14 14 13 13 14 14 15 16 16 18 17 17 16
8 10 9 12 12 11 13 13 14 13 13 15 17 14 14 14 16 14 12 12 12 12 12 12 12 12 12 13 12 13 14 15 15 14 14 14 13 13 13 13 12 13 12 12 11 12 13 14 15 16 16 17 17 16
9 11 11 10 10 10 12 12 12 13 14 15 15 16 16 15 13 12 12 11 12 13 14 14 14 14 13 13 14 14 14 14 14 14 14 13 12 11 10 11 10 9 9 10 11 11 12 13 14 14 15 16 16 16
12 11 12 12 12 12 12 12 13 13 12 11 13 13 14 13 12 12 11 13 14 14 14 15 15 14 13 12 12 11 11 11 11 11 12 11 10 8 7 7 6 7 7 8 9 10 11 11 12 13 13 14 14 14
12 12 11 13 13 13 12 12 12 12 12 12 13 12 12 11 11 11 12 14 14 14 14 14 14 14 12 11 10 9 8 8 8 8 8 7 7 6 6 5 5 5 6 7 9 9 9 9 9 10 11 12 13 13
12 12 12 13 13 13 13 12 13 13 12 12 10 10 10 11 11 12 12 13 12 12 13 13 13 14 13 10 8 7 6 6 5 5 5 5 5 4 3 3 4 4 5 6 5 5 6 5 6 6 8 7 7 9
12 12 13 12 12 12 13 13 13 13 13 12 12 11 11 11 11 12 12 12 12 12 13 13 13 13 12 11 8 7 5 5 5 5 5 4 4 4 4 3 3 3 4 4 3 3 3 3 4 4 4 4 4 4
14 14 13 14 13 12 13 12 12 12 12 12 12 12 10 10 10 11 12 12 12 12 13 13 12 12 10 9 8 7 7 7 7 6 6 4 4 4 4 4 3 3 3 3 2 2 2 2 2 2 2 2 2 2
14 14 14 15 13 13 14 13 12 12 12 12 12 12 11 10 10 11 13 13 12 13 13 13 12 11 11 10 9 9 9 9 8 7 7 6 6 5 5 5 4 3 3 3 3 3 2 2 1 1 1 1 1 1
Height
826 825 825 824 824 824 823 821 820 819 817 815 813 811 809 806 803 801 796 796 796 796 779 770 766 770 771 771 778 763 761 757 760 774 777 779 774 765 770 765 771 780 791 795 800 804 802 752 755 769 776 772 772 780
824 823 823 822 822 822 820 819 818 816 815 813 811 810 808 805 803 801 797 795 793 792 777 767 764 759 761 758 765 763 771 770 765 773 776 773 773 773 780 786 761 780 773 783 783 788 763 756 759 763 764 770 779 781
822 821 820 820 820 819 818 817 815 814 812 811 809 807 805 804 803 801 798 794 791 788 774 765 756 747 750 750 752 763 760 753 756 758 772 775 773 774 784 780 764 761 752 773 775 767 764 761 763 764 765 771 777 780
820 819 818 818 817 816 815 814 813 811 809 808 806 805 803 801 800 799 797 795 795 792 791 766 748 743 741 743 747 748 747 744 753 755 768 775 774 763 776 767 770 762 756 769 775 769 769 767 765 767 770 773 779 783
819 817 815 815 814 812 812 811 810 808 807 805 804 802 800 798 796 794 791 790 791 795 793 775 753 741 738 742 743 744 745 751 758 762 767 771 766 763 768 768 771 757 760 773 780 763 764 769 768 767 771 777 781 785
817 816 814 811 810 809 809 808 807 806 804 802 801 799 797 795 793 790 789 789 789 789 788 787 755 743 740 740 741 743 745 749 754 760 764 761 751 761 778 782 764 754 750 748 757 752 754 760 765 766 771 777 780 784
816 814 812 809 807 807 807 806 804 803 801 799 798 796 795 793 792 791 788 786 785 787 788 786 773 745 740 741 744 745 745 748 752 760 762 760 756 759 776 780 762 755 753 752 751 752 763 763 769 769 772 777 781 786
814 812 810 808 806 805 805 803 802 800 798 796 794 793 791 790 788 784 780 781 783 786 786 789 776 760 739 751 755 747 751 753 752 756 758 760 759 764 775 763 757 755 754 754 753 752 757 762 767 772 774 778 783 787
811 810 808 807 805 803 802 801 799 797 795 793 791 788 787 786 785 780 780 780 781 785 787 784 782 775 745 751 752 751 752 764 756 759 761 760 770 772 762 760 757 755 754 756 754 758 761 764 770 773 775 780 783 786
808 808 806 805 803 802 801 799 796 794 791 789 788 787 785 782 780 781 781 782 781 781 783 784 770 770 756 757 758 759 758 764 767 760 751 762 768 756 750 749 750 752 751 751 757 761 767 770 770 771 771 772 775 778
805 805 804 803 802 801 799 797 795 792 790 789 787 785 781 780 780 780 783 784 781 781 775 768 764 767 753 760 761 755 761 759 768 762 761 769 771 759 753 752 751 750 750 751 752 753 756 759 764 767 769 769 770 773
803 802 802 801 799 798 797 796 794 792 792 792 792 787 783 781 782 782 783 776 777 772 759 759 755 756 751 747 754 756 757 761 763 754 756 769 764 757 754 751 751 751 751 752 751 751 752 754 757 760 762 765 768 769
800 800 799 798 797 796 796 795 794 793 790 790 789 787 781 781 788 784 780 776 771 757 750 749 753 749 749 749 755 757 761 769 757 765 767 768 763 761 759 754 753 753 753 753 754 752 753 757 758 758 763 766 768 770
797 797 796 796 795 794 794 794 793 792 791 790 787 798 784 781 775 772 772 765 756 754 752 750 755 755 755 757 760 761 761 758 767 772 768 771 766 760 759 758 757 759 758 758 758 758 758 759 761 763 764 766 767 769
795 794 793 792 791 792 792 792 792 792 791 788 785 791 780 769 766 764 761 758 755 748 752 754 757 761 760 760 762 763 764 771 768 772 773 769 766 762 761 762 761 762 762 763 763 762 760 759 759 760 761 763 764 765
792 792 790 789 788 789 791 791 791 791 789 787 783 781 771 770 769 766 761 757 751 749 753 759 766 770 771 766 766 765 768 775 773 769 767 765 763 762 763 763 763 764 766 766 765 765 764 763 762 761 761 761 760 761
791 791 789 788 787 789 790 790 790 790 788 784 779 771 769 770 769 770 762 759 753 758 769 770 771 771 768 772 768 773 776 775 770 767 765 763 764 764 763 763 764 765 765 765 765 765 764 763 762 761 760 761 758 757
791 790 788 788 789 790 790 790 790 789 785 779 780 775 768 766 767 767 763 762 761 762 766 769 770 771 776 778 779 779 775 770 769 764 767 764 764 764 763 763 763 763 763 763 763 762 762 761 760 758 757 756 754 752
790 790 789 790 791 790 791 791 792 789 784 779 774 770 769 769 767 765 764 762 759 759 766 770 775 780 785 782 778 773 775 775 774 771 768 765 766 766 765 764 763 762 762 761 760 759 757 756 754 754 754 752 751 750
790 790 791 791 791 791 789 791 790 789 784 776 771 771 769 770 767 766 765 763 764 767 770 772 777 777 782 778 772 772 772 771 771 772 771 770 768 767 765 764 763 761 760 757 756 754 753 751 750 749 748 748 747 744
790 790 791 792 792 791 790 787 786 784 777 775 769 769 769 767 768 768 768 766 770 774 778 775 775 774 771 770 770 770 770 770 771 772 772 771 765 764 762 760 759 757 756 754 752 748 746 745 742 742 742 741 739 738
789 791 792 793 792 790 789 783 781 777 778 773 770 769 771 773 773 771 769 771 774 774 773 774 773 772 772 771 771 770 770 769 768 767 766 764 764 762 760 757 756 754 752 750 747 743 739 737 736 735 735 733 732 732
789 790 790 791 791 791 789 779 779 774 775 772 767 768 770 771 770 767 774 772 772 770 770 771 771 771 772 772 772 770 769 768 767 765 763 763 760 759 757 754 753 752 751 747 746 743 738 736 734 734 732 731 729 726
790 789 789 789 789 789 782 778 775 770 768 769 768 769 769 770 769 774 776 775 772 770 771 774 772 773 772 772 773 772 770 767 765 765 764 762 760 760 758 757 754 754 753 748 745 744 738 733 733 732 729 723 724 722
793 791 793 795 788 787 778 774 772 770 772 768 766 770 771 770 775 774 777 783 779 777 776 776 776 778 780 779 776 773 772 770 769 770 767 764 765 763 760 759 761 759 753 748 744 741 739 735 731 728 725 723 720 716
793 788 790 783 781 781 775 773 773 775 776 768 764 767 768 772 774 782 789 788 785 783 781 780 780 779 782 782 780 777 778 776 773 770 771 770 770 769 767 760 760 757 755 751 746 740 736 733 730 725 720 717 716 712
789 782 783 782 783 782 778 777 775 776 773 769 768 766 768 777 790 791 790 789 788 787 785 783 782 783 783 783 783 782 781 780 778 777 775 775 775 774 772 769 765 763 756 750 745 740 736 731 726 720 716 712 709 706
781 782 781 779 779 779 781 781 778 778 780 779 775 778 781 788 790 793 792 790 790 787 785 786 786 786 785 785 787 787 786 785 784 780 777 777 778 775 772 769 766 760 753 748 744 739 735 729 723 718 713 709 705 703
780 779 782 780 778 778 783 783 782 781 780 778 782 788 792 797 795 795 794 793 791 790 790 789 789 789 790 790 792 792 790 788 783 780 779 778 775 773 771 767 762 756 751 746 742 739 734 729 724 718 711 707 706 699
781 779 781 781 782 780 781 779 778 776 775 780 788 796 798 800 800 798 797 796 795 795 794 793 793 792 792 794 796 796 796 793 791 790 788 787 785 780 774 768 764 759 755 751 746 739 733 728 722 718 714 711 707 703
779 780 781 784 782 783 783 780 781 782 785 790 793 795 799 802 803 803 801 800 798 796 795 795 796 795 794 795 797 798 799 798 795 793 791 788 785 781 776 772 768 763 759 755 750 745 740 734 730 726 723 719 716 712
776 776 778 776 783 784 785 788 789 791 792 793 796 798 802 805 808 805 804 802 801 799 798 798 798 798 797 797 798 798 797 796 795 793 791 788 785 782 779 775 771 768 764 760 756 752 747 743 739 735 731 728 725 722
775 774 774 774 783 784 784 786 793 796 797 799 802 803 805 809 811 808 807 806 805 804 802 801 801 800 799 798 798 798 797 795 794 793 791 789 787 785 781 778 774 771 768 765 762 758 755 751 748 744 740 737 735 732
Wind_Speed
5 5 5 5 6 8 9 10 11 13 14 14 13 14 15 15 16 18 9 7 6 2 7 5 2 1 4 2 1 5 3 5 5 5 2 3 2 1 4 1 6 5 5 2 2 3 2 2 4 2 5 4 9 7
5 4 5 5 6 8 9 10 12 13 13 12 13 14 14 13 14 13 5 10 14 5 7 19 29 37 20 23 4 2 7 3 3 3 2 1 3 3 2 1 5 2 5 5 6 5 6 4 7 7 10 13 5 9
7 6 6 6 7 8 10 11 11 11 12 13 13 14 13 13 12 12 11 15 7 2 6 3 7 19 20 27 24 2 2 3 4 4 3 2 4 3 2 2 3 6 2 4 5 4 5 8 5 5 7 11 8 7
8 9 9 9 10 10 10 10 11 12 12 13 13 13 13 13 12 12 11 10 8 5 2 6 13 9 5 20 20 21 4 5 1 3 2 1 1 2 3 3 3 5 3 4 1 4 7 5 8 13 12 12 12 8
10 10 9 10 10 11 10 10 11 12 12 12 13 14 13 13 13 15 18 8 2 2 2 5 22 8 10 13 7 2 5 3 1 2 2 2 2 2 2 3 3 1 5 3 5 6 5 6 7 14 15 11 11 13
9 12 13 11 10 9 10 11 11 12 11 12 13 13 12 13 14 6 2 5 8 1 1 4 6 6 3 13 9 2 1 1 2 4 3 3 3 4 3 2 5 2 4 4 5 5 6 10 11 6 12 11 8 10
9 12 14 13 7 6 9 11 11 12 13 13 13 13 12 12 12 4 4 3 6 14 2 4 5 5 7 4 3 1 2 2 3 1 1 2 3 4 3 2 4 5 6 7 5 9 8 6 6 8 13 13 20 17
10 12 14 11 7 7 8 10 11 12 14 15 14 14 14 13 15 9 4 6 11 4 1 2 4 5 1 0 1 1 0 3 3 3 2 1 3 3 1 4 5 3 7 7 5 4 6 9 10 8 15 15 10 9
10 11 11 9 8 8 9 11 13 14 15 15 15 16 7 3 3 3 2 2 4 2 2 1 2 3 4 1 2 3 2 1 2 3 2 4 1 2 7 6 7 7 6 7 7 8 12 13 11 9 10 9 9 8
10 10 10 10 8 8 9 11 14 14 14 14 8 2 2 3 3 3 1 2 2 1 0 3 2 3 2 1 2 1 1 3 0 5 2 3 3 4 5 9 8 7 7 7 6 4 6 7 12 9 10 9 8 9
9 10 10 10 10 10 10 12 12 13 4 3 3 2 6 3 2 0 1 2 2 2 3 4 6 3 2 1 4 2 3 1 1 4 5 1 2 2 2 6 5 6 7 6 3 4 9 11 10 9 7 10 12 13
9 9 10 10 11 9 8 10 11 6 3 8 11 9 5 2 0 1 3 2 3 4 3 4 5 5 3 2 2 3 1 3 2 3 2 3 2 1 5 5 5 6 7 8 9 5 8 11 14 12 9 12 15 15
8 9 9 10 11 7 7 9 8 10 9 2 2 2 1 1 1 4 3 3 2 3 2 0 1 2 3 3 2 2 3 2 1 3 0 2 1 2 3 4 7 6 10 10 7 14 18 13 14 15 9 10 12 12
8 8 9 10 11 8 6 7 9 5 2 2 1 3 3 4 4 3 3 3 3 3 4 4 2 2 1 3 1 2 2 2 2 1 2 2 3 3 5 5 9 8 8 8 6 7 11 13 12 14 14 11 8 9
8 8 11 14 12 8 6 6 5 3 2 2 2 3 4 3 3 3 4 2 3 1 3 3 3 2 2 2 1 1 0 2 1 1 2 1 2 6 6 5 7 7 7 7 9 3 4 9 12 12 12 11 10 11
6 8 3 8 6 7 4 3 2 1 3 2 3 2 4 1 4 4 3 3 2 4 3 3 2 4 3 2 2 4 3 2 2 1 2 3 3 5 4 5 5 7 7 7 9 9 10 10 5 3 8 12 16 17
3 3 9 8 4 7 1 1 1 2 2 3 3 3 6 2 0 3 4 5 6 3 2 3 3 3 1 1 2 4 2 3 2 2 2 4 4 3 2 0 3 4 3 2 1 2 3 4 6 8 6 12 12 18
1 6 6 1 8 4 1 1 1 1 2 3 2 4 2 1 2 2 2 1 3 2 2 2 2 3 2 3 3 2 3 4 4 2 1 2 3 6 6 6 9 6 6 6 7 7 6 6 7 11 12 10 7 7
3 4 5 8 3 2 2 3 3 1 4 3 4 3 2 1 2 3 3 4 3 2 4 2 4 2 3 2 3 2 2 3 2 2 3 7 6 5 6 6 7 7 8 9 8 12 12 12 14 13 15 11 9 13
6 5 1 4 4 2 2 1 3 2 3 3 1 1 3 2 2 2 2 2 2 2 3 2 2 3 5 3 0 2 1 1 2 3 2 3 8 10 11 10 10 11 13 16 17 19 16 17 20 20 20 21 20 21
2 2 2 2 2 3 2 1 2 3 3 2 2 1 2 1 1 1 2 2 3 1 2 1 0 1 1 3 4 4 3 3 1 3 4 4 14 15 18 21 18 14 10 12 10 16 21 19 27 24 22 23 23 24
2 8 3 4 2 2 3 5 3 3 1 3 0 1 1 2 1 1 1 2 1 2 3 3 2 2 1 1 3 4 7 8 8 8 11 10 3 4 8 11 9 8 12 15 19 15 18 23 25 23 21 25 25 25
3 5 3 3 1 0 6 2 2 3 3 2 1 2 1 1 2 1 2 1 1 1 5 3 1 1 2 5 9 18 17 8 4 6 9 10 9 11 15 19 11 10 7 13 18 15 12 20 20 16 19 22 24 23
1 3 3 2 3 3 3 2 3 2 1 1 2 2 2 2 1 2 2 0 2 2 3 5 11 4 9 13 5 9 18 19 13 11 14 14 12 17 20 19 17 16 18 17 18 21 18 17 9 8 7 13 23 22
1 2 3 3 2 2 3 2 2 2 1 2 2 2 1 2 2 1 2 3 4 4 4 8 9 7 4 4 9 15 20 17 9 2 15 18 14 16 17 19 19 16 24 21 18 17 20 22 24 15 13 15 18 22
1 3 4 2 2 2 2 1 2 2 3 2 2 3 2 2 3 3 3 4 4 4 4 5 4 4 4 5 3 7 16 14 18 15 16 18 18 13 12 10 9 21 29 26 20 20 21 21 24 21 15 14 17 15
2 2 2 3 1 3 2 2 1 2 2 4 2 1 2 3 5 1 1 4 2 8 16 17 13 11 5 5 13 18 20 23 20 15 21 21 22 23 21 18 17 24 31 28 26 25 24 23 23 23 18 17 18 17
1 1 1 2 1 1 2 3 3 4 3 4 2 6 3 3 2 2 0 4 12 13 18 16 19 22 21 25 21 21 19 17 17 19 13 15 16 19 24 22 24 27 28 29 29 29 23 25 24 24 25 20 20 10
1 1 1 2 2 2 2 3 1 1 2 1 3 3 3 2 3 5 10 12 13 15 15 14 16 17 19 24 22 23 25 23 22 15 14 10 17 22 29 27 28 30 30 31 26 28 30 26 26 27 24 16 12 8
1 1 2 1 1 2 2 1 3 2 3 6 5 3 2 3 11 15 18 17 16 13 10 10 13 15 15 14 16 20 23 23 21 16 6 8 14 22 25 27 27 27 26 25 25 29 30 29 31 30 27 25 27 22
2 1 2 3 3 1 3 6 15 15 9 5 5 7 4 2 8 14 15 14 15 18 14 13 14 17 15 15 14 12 11 19 21 21 18 16 20 24 27 26 26 25 24 23 24 26 27 26 27 27 29 30 29 27
1 2 1 3 4 3 7 4 3 5 3 3 2 3 2 2 3 6 11 14 18 19 15 15 15 15 17 21 19 18 18 18 20 20 23 23 23 23 24 23 23 21 21 23 24 26 27 25 25 27 27 29 30 29
3 3 4 2 4 5 3 4 3 2 3 3 3 3 3 2 3 3 10 12 12 10 18 14 17 18 17 11 12 12 13 13 12 12 14 16 18 20 24 25 24 21 20 21 22 22 22 24 26 27 30 28 29 29
Wind_Direction
292 290 291 296 300 300 302 310 317 321 321 321 329 338 339 346 349 349 321 45 13 278 276 241 263 226 354 40 85 285 33 357 11 46 115 255 124 284 61 307 156 158 138 208 77 91 250 260 359 100 183 40 98 91
292 287 286 292 304 302 306 312 316 320 326 328 328 330 333 339 343 350 306 322 331 204 251 286 272 274 237 231 173 321 179 228 228 52 353 317 32 34 177 23 340 13 183 179 162 208 232 311 132 120 129 123 122 117
295 287 289 289 294 302 307 314 320 319 319 322 324 327 324 329 335 335 313 325 336 302 302 325 251 273 260 241 233 92 283 207 2 172 175 247 73 113 78 263 35 328 93 109 71 307 135 107 66 98 135 120 125 117
316 295 281 284 290 294 299 307 311 314 318 322 324 327 321 320 322 317 302 282 299 271 280 282 334 311 283 225 219 223 213 20 35 88 146 155 134 151 204 204 140 211 45 139 5 64 72 27 117 124 106 105 102 89
357 346 312 288 290 297 300 302 305 317 320 325 327 323 318 318 316 310 295 290 203 229 249 282 311 292 221 183 154 71 86 105 94 344 67 236 238 81 346 66 349 317 193 137 213 202 140 179 162 137 128 131 125 117
338 338 339 318 288 286 302 300 304 312 317 319 318 317 318 321 325 331 3 123 83 127 65 311 296 303 164 143 145 149 151 113 121 146 217 272 269 111 100 166 261 324 45 160 161 169 140 149 154 145 133 141 134 131
335 335 339 335 303 299 300 302 302 310 313 310 307 310 314 314 310 238 238 146 224 345 64 312 312 271 184 103 11 15 25 196 129 151 218 198 300 85 100 149 269 117 96 58 102 93 74 144 151 137 132 129 137 146
322 329 335 339 320 302 301 302 301 306 309 310 307 308 304 299 289 286 272 253 245 225 134 261 272 343 65 68 343 147 124 18 341 186 16 124 345 70 107 246 164 154 110 91 82 114 147 125 116 122 129 132 128 138
309 320 325 323 313 303 307 302 306 306 310 311 306 305 293 225 233 261 197 134 162 191 205 256 221 261 350 331 205 345 102 82 293 173 232 107 317 177 215 164 164 178 160 165 110 111 130 140 144 141 138 147 149 171
291 313 314 321 306 308 300 304 308 311 314 304 303 296 291 264 237 169 161 31 13 287 41 225 257 269 69 6 281 93 24 198 191 240 102 115 237 278 272 183 164 149 145 127 100 94 120 143 162 168 176 172 169 181
285 302 306 308 304 302 298 310 317 331 2 348 329 263 319 273 273 324 238 170 183 247 210 231 198 214 294 147 223 177 196 188 118 272 129 211 349 320 23 96 117 97 80 55 96 192 165 171 175 173 182 184 179 183
287 295 301 301 308 299 292 319 333 339 340 322 295 298 296 282 19 226 239 252 181 231 209 194 215 188 261 138 92 338 134 35 268 313 122 105 254 233 93 89 86 69 47 19 357 290 204 171 181 181 179 179 180 175
283 287 294 300 303 282 274 303 329 321 319 301 246 274 258 242 37 204 223 262 254 251 268 191 18 145 6 42 52 48 64 247 346 21 344 157 176 62 75 47 64 52 54 43 35 87 101 97 113 128 131 186 188 184
279 287 292 291 294 283 248 278 318 327 309 260 161 324 190 242 229 194 265 268 298 11 353 88 12 92 331 57 113 67 263 64 357 284 233 229 198 91 56 64 65 41 34 35 63 105 118 121 124 128 130 135 144 199
284 292 288 280 274 261 254 275 308 296 274 263 168 228 233 268 269 273 263 333 258 220 62 24 6 55 23 81 57 95 158 261 198 353 215 213 234 97 76 60 57 50 44 40 26 15 188 171 173 179 188 193 207 204
293 298 301 355 250 211 236 293 221 242 259 257 238 273 275 9 324 339 327 310 322 359 48 54 99 43 355 18 324 216 159 55 293 186 167 156 95 71 63 48 50 62 79 67 57 48 37 38 25 261 251 235 221 225
268 277 318 327 192 177 231 235 205 243 261 276 265 265 247 263 198 308 350 342 324 84 87 80 78 214 346 226 215 31 67 264 247 115 159 144 130 123 124 132 273 278 222 201 246 329 315 319 315 330 334 307 299 267
226 319 347 29 162 158 173 264 284 24 268 258 247 272 3 150 287 273 330 70 345 49 75 159 138 51 45 14 355 167 39 354 315 92 231 201 211 229 239 246 261 260 255 273 246 254 251 263 279 280 286 273 288 285
197 340 39 154 169 267 183 194 193 231 239 255 281 290 134 220 281 322 325 336 6 64 104 45 85 45 60 268 210 124 127 147 240 329 348 17 7 344 340 10 356 320 283 276 259 249 253 260 260 271 282 275 266 283
252 282 301 204 235 316 182 226 228 245 272 240 296 348 137 213 247 324 291 30 48 36 21 59 114 167 181 228 104 92 304 355 49 2 337 331 336 331 325 319 304 301 297 292 277 265 258 259 264 266 263 263 274 272
236 190 163 189 210 269 288 218 233 228 272 289 252 164 211 117 331 21 358 350 53 74 51 150 124 275 107 74 52 36 358 18 295 190 239 294 311 315 308 308 304 297 289 289 279 270 253 243 263 276 272 268 267 264
210 161 132 185 268 268 247 245 228 279 256 237 124 158 164 144 118 266 213 80 143 250 137 156 183 144 70 332 286 290 278 277 284 287 296 291 291 305 299 293 295 284 295 301 293 276 270 264 262 264 264 263 261 260
115 158 168 174 248 256 259 243 257 202 191 249 76 134 74 84 208 61 49 332 220 226 139 165 176 9 296 340 26 18 9 327 308 288 279 316 309 310 317 308 314 342 330 356 1 13 19 11 347 294 283 283 280 275
96 186 185 195 191 272 310 257 245 273 316 65 157 117 148 163 44 73 154 68 319 18 50 45 63 35 22 28 18 356 0 0 340 335 33 19 7 358 356 345 11 27 14 359 355 337 351 11 337 313 326 358 307 275
6 324 105 296 238 256 252 250 215 45 13 274 142 124 226 76 104 134 121 5 346 21 55 70 66 62 43 356 20 19 25 8 338 62 29 48 37 23 29 23 2 355 2 358 347 337 328 337 336 308 315 299 301 276
161 211 158 238 243 218 307 304 97 103 282 268 191 156 117 102 70 56 48 320 352 11 45 52 68 59 40 12 358 19 16 6 47 54 58 57 49 33 11 15 352 340 344 342 325 325 322 322 322 298 299 310 298 306
302 197 203 222 238 293 326 17 284 193 321 359 15 96 87 64 37 65 31 353 62 59 56 47 51 53 29 21 48 47 43 40 39 41 52 53 43 35 19 0 350 333 337 338 342 336 323 318 319 315 308 322 326 334
218 176 186 316 208 188 66 2 355 36 358 320 343 32 76 79 330 58 256 79 82 70 62 51 51 48 57 73 60 51 40 33 39 41 42 33 20 14 8 358 347 349 349 349 345 342 343 341 337 329 320 317 312 346
284 203 164 9 25 77 125 225 231 118 281 316 66 48 66 62 5 15 34 57 63 61 54 42 40 51 85 71 66 54 45 36 27 24 17 5 359 357 355 354 355 355 353 353 358 352 354 356 355 0 360 343 319 352
326 6 100 82 336 45 55 336 281 326 61 95 101 106 55 52 30 48 46 42 32 19 14 33 46 55 68 102 87 65 51 45 45 35 10 6 352 349 356 359 359 358 1 7 5 3 4 7 8 11 9 10 10 359
182 161 67 31 333 147 67 50 75 94 96 84 79 107 106 111 32 33 31 28 23 18 25 66 65 61 74 92 96 89 69 54 55 46 38 30 22 19 16 13 6 8 11 15 17 18 19 20 19 20 19 17 13 10
193 225 323 64 104 104 106 82 62 73 64 72 87 83 77 77 48 337 2 8 12 3 22 95 81 67 106 107 88 83 71 58 37 35 37 38 36 33 28 29 22 22 25 28 29 28 29 29 30 32 29 24 20 17
216 220 230 148 133 172 164 111 92 77 42 61 76 77 62 62 54 318 353 11 358 16 45 90 86 74 79 111 106 90 53 41 38 33 35 33 37 40 41 39 40 36 36 32 30 30 32 34 34 33 34 32 26 22